Date,TemperatureHighF,TemperatureAvgF,TemperatureLowF,DewpointHighF,DewpointAvgF,DewpointLowF,HumidityHigh,HumidityAvg,HumidityLow,PressureMaxIn,PressureMinIn,WindSpeedMaxMPH,WindSpeedAvgMPH,GustSpeedMaxMPH,PrecipitationSumIn
2013-3-1,70.2,63.1,55.7,47.0,40.3,27.0,59,44,24,30.43,30.26,2,0,0,0.00
2013-3-2,68.1,61.7,53.0,46.0,37.3,31.0,59,41,28,30.27,30.12,3,0,0,0.00
2013-3-3,62.1,53.9,48.2,50.0,42.5,33.0,82,66,37,30.17,30.07,5,0,0,0.00
2013-3-4,56.3,49.4,40.9,49.0,41.1,36.0,92,73,56,30.18,30.09,5,0,0,0.00
2013-3-5,47.1,41.9,38.3,42.0,39.2,37.0,94,90,79,30.14,30.06,11,1,0,0.17
2013-3-6,46.3,44.2,41.5,45.0,42.5,39.0,96,93,76,30.17,30.07,19,5,0,0.37
2013-3-8,51.6,31.4,40.6,46.0,-2.7,-99.9,90,57,69,30.17,0.00,6,-302,0,0.00
2013-3-9,60.1,48.8,38.8,47.0,37.1,27.0,86,66,38,30.36,30.17,14,1,0,0.00
2013-3-10,59.7,55.1,51.5,48.0,34.2,23.0,71,47,30,30.38,30.28,7,0,0,0.00
2013-3-11,65.1,62.1,55.7,46.0,37.6,28.0,57,42,25,30.26,30.13,5,0,0,0.00
2013-3-12,70.4,64.6,57.8,48.0,38.9,28.0,49,39,26,30.15,30.08,1,0,0,0.00
2013-3-13,75.0,68.6,63.7,50.0,40.7,22.0,52,37,16,30.17,30.10,1,0,0,0.00
2013-3-14,73.8,69.0,63.0,51.0,33.8,25.0,49,28,20,30.15,30.07,0,0,0,0.00
2013-3-15,75.3,68.7,62.7,51.0,38.9,30.0,46,34,25,30.09,30.01,15,1,0,0.00
2013-3-16,75.3,64.8,59.7,49.0,31.9,21.0,48,30,21,30.08,29.99,17,1,0,0.00
2013-3-17,73.0,62.8,56.9,48.0,30.3,16.0,51,30,17,30.10,30.03,22,3,0,0.00
2013-3-18,66.2,59.6,53.1,43.0,29.4,15.0,58,33,17,30.12,30.02,2,0,0,0.00
2013-3-19,66.7,59.7,52.8,46.0,39.8,33.0,71,49,37,30.18,30.07,11,1,0,0.05
2013-3-20,60.2,55.3,51.9,47.0,43.9,38.0,83,66,54,30.17,30.11,2,0,0,0.00
2013-3-21,64.7,58.9,52.3,49.0,30.7,11.0,66,39,15,30.09,30.00,13,2,0,0.00
2013-3-22,69.5,59.5,53.5,33.0,21.1,13.0,32,23,16,30.06,29.97,13,2,0,0.00
2013-3-23,64.2,58.2,52.5,37.0,22.5,11.0,40,26,18,30.11,30.04,5,0,0,0.00
2013-3-24,65.1,60.5,55.8,45.0,33.4,24.0,51,37,25,30.10,29.98,1,0,0,0.00
2013-3-25,66.6,60.9,56.3,44.0,35.5,18.0,52,39,22,30.04,29.96,2,0,0,0.00
2013-3-26,57.7,53.5,49.2,48.0,33.1,15.0,83,51,20,30.02,29.96,3,0,0,0.00
2013-3-27,57.8,52.7,49.6,51.0,46.8,42.0,92,80,68,30.09,29.99,1,0,0,0.00
2013-3-28,62.4,52.4,48.5,54.0,47.7,39.0,95,85,52,30.14,30.07,3,0,0,0.02
2013-3-29,65.3,57.6,53.3,53.0,44.9,37.0,76,63,52,30.15,30.08,4,0,0,0.00
2013-3-30,59.5,52.0,45.4,52.0,46.9,41.0,95,83,60,30.14,30.07,13,1,0,0.71
2013-3-31,56.0,50.6,46.4,52.0,48.5,45.0,96,92,83,30.16,30.10,5,1,0,0.06